| time (UTC) | temp C | wind direction | speed KPH | gust KPH | rain 1hr cm | rain 24hr cm | rain mn cm | humidity % | barometer mb |
| 20260508200049 | 16 | 166 | 0.0 | 6.4 | 0.00 | 0.00 | 0.00 | 32 | 1012.0 |
| 20260508194553 | 15 | 4 | 0.0 | 14.5 | 0.00 | 0.00 | 0.00 | 29 | 1012.1 |
| 20260508193056 | 15 | 294 | 3.2 | 22.5 | 0.00 | 0.00 | 0.00 | 30 | 1012.0 |
| 20260508191547 | 15 | 248 | 0.0 | 4.8 | 0.00 | 0.00 | 0.00 | 30 | 1011.9 |
| 20260508190045 | 16 | 252 | 0.0 | 1.6 | 0.00 | 0.00 | 0.00 | 28 | 1011.8 |
| 20260508184543 | 16 | 281 | 0.0 | 12.9 | 0.00 | 0.00 | 0.00 | 31 | 1012.0 |
| 20260508183041 | 16 | 280 | 0.0 | 9.7 | 0.00 | 0.00 | 0.00 | 29 | 1011.8 |
| 20260508181543 | 15 | 122 | 0.0 | 17.7 | 0.00 | 0.00 | 0.00 | 30 | 1011.9 |
| 20260508180038 | 15 | 233 | 0.0 | 11.3 | 0.00 | 0.00 | 0.00 | 32 | 1012.0 |
| 20260508174539 | 15 | 259 | 0.0 | 8.0 | 0.00 | 0.00 | 0.00 | 33 | 1011.9 |
| 20260508173037 | 15 | 286 | 0.0 | 9.7 | 0.00 | 0.00 | 0.00 | 33 | 1011.9 |
| 20260508171538 | 14 | 289 | 0.0 | 11.3 | 0.00 | 0.00 | 0.00 | 33 | 1012.1 |
| 20260508170037 | 15 | 23 | 0.0 | 8.0 | 0.00 | 0.00 | 0.00 | 31 | 1012.0 |
| 20260508164536 | 15 | 278 | 0.0 | 14.5 | 0.00 | 0.00 | 0.00 | 33 | 1012.0 |
| 20260508163038 | 14 | 290 | 0.0 | 12.9 | 0.00 | 0.00 | 0.00 | 33 | 1012.0 |
| 20260508161535 | 15 | 269 | 0.0 | 4.8 | 0.00 | 0.00 | 0.00 | 32 | 1012.1 |
| 20260508160032 | 15 | 31 | 0.0 | 1.6 | 0.00 | 0.00 | 0.00 | 33 | 1012.2 |
| 20260508154533 | 14 | 350 | 0.0 | 1.6 | 0.00 | 0.00 | 0.00 | 36 | 1012.4 |
| 20260508153034 | 14 | 214 | 0.0 | 9.7 | 0.00 | 0.00 | 0.00 | 34 | 1012.4 |
| 20260508151531 | 15 | 290 | 1.6 | 16.1 | 0.00 | 0.00 | 0.00 | 34 | 1012.4 |
| 20260508150030 | 13 | 275 | 0.0 | 11.3 | 0.00 | 0.00 | 0.00 | 37 | 1012.4 |
| 20260508144529 | 13 | 26 | 0.0 | 1.6 | 0.00 | 0.00 | 0.00 | 38 | 1012.5 |
| 20260508143028 | 13 | 248 | 0.0 | 4.8 | 0.00 | 0.00 | 0.00 | 35 | 1012.6 |
| 20260508141527 | 13 | 355 | 0.0 | 9.7 | 0.00 | 0.00 | 0.00 | 38 | 1012.7 |
| 20260508140027 | 13 | 334 | 0.0 | 6.4 | 0.00 | 0.00 | 0.00 | 37 | 1012.8 |
| 20260508134524 | 13 | 43 | 0.0 | 9.7 | 0.00 | 0.00 | 0.00 | 38 | 1013.0 |
| 20260508133021 | 13 | 316 | 0.0 | 1.6 | 0.00 | 0.00 | 0.00 | 39 | 1013.1 |
| 20260508131519 | 12 | 327 | 0.0 | 1.6 | 0.00 | 0.00 | 0.00 | 42 | 1013.3 |
| 20260508130021 | 12 | 4 | 0.0 | 4.8 | 0.00 | 0.00 | 0.00 | 44 | 1013.3 |
| 20260508124515 | 12 | 279 | 0.0 | 3.2 | 0.00 | 0.00 | 0.00 | 47 | 1013.4 |
| 20260508123012 | 11 | 250 | 0.0 | 0.0 | 0.00 | 0.00 | 0.00 | 51 | 1013.4 |
| 20260508121507 | 10 | 20 | 0.0 | 0.0 | 0.00 | 0.00 | 0.00 | 54 | 1013.4 |
| 20260508120010 | 8 | 267 | 0.0 | 1.6 | 0.00 | 0.00 | 0.00 | 59 | 1013.5 |
| 20260508114609 | 7 | 304 | 0.0 | 0.0 | 0.00 | 0.00 | 0.00 | 64 | 1013.4 |
| 20260508113103 | 6 | 4 | 0.0 | 0.0 | 0.00 | 0.00 | 0.00 | 75 | 1013.4 |
| 20260508111606 | 3 | 304 | 0.0 | 0.0 | 0.00 | 0.00 | 0.00 | 83 | 1013.3 |
| 20260508110052 | 2 | 269 | 0.0 | 0.0 | 0.00 | 0.00 | 0.00 | 86 | 1013.3 |
| 20260508104551 | 1 | 269 | 0.0 | 0.0 | 0.00 | 0.00 | 0.00 | 87 | 1013.1 |
| 20260508103049 | 1 | 269 | 0.0 | 0.0 | 0.00 | 0.00 | 0.00 | 88 | 1012.9 |
| 20260508101552 | 0 | 269 | 0.0 | 0.0 | 0.00 | 0.00 | 0.00 | 89 | 1012.9 |
| 20260508100046 | 0 | 269 | 0.0 | 0.0 | 0.00 | 0.00 | 0.00 | 88 | 1012.6 |
| 20260508094547 | 0 | 269 | 0.0 | 0.0 | 0.00 | 0.00 | 0.00 | 88 | 1012.4 |
| 20260508093044 | 0 | 269 | 0.0 | 0.0 | 0.00 | 0.00 | 0.00 | 88 | 1012.5 |
| 20260508091551 | 0 | 269 | 0.0 | 0.0 | 0.00 | 0.00 | 0.00 | 87 | 1012.5 |
| 20260508090043 | 0 | 269 | 0.0 | 0.0 | 0.00 | 0.00 | 0.00 | 87 | 1012.3 |
| 20260508084539 | 0 | 269 | 0.0 | 0.0 | 0.00 | 0.05 | 0.00 | 85 | 1012.3 |
| 20260508083040 | 0 | 269 | 0.0 | 0.0 | 0.00 | 0.05 | 0.00 | 85 | 1012.0 |
| 20260508081544 | 0 | 269 | 0.0 | 0.0 | 0.00 | 0.05 | 0.00 | 84 | 1011.8 |
| 20260508080133 | 1 | 269 | 0.0 | 0.0 | 0.00 | 0.05 | 0.00 | 83 | 1011.7 |
| 20260508074531 | 1 | 269 | 0.0 | 0.0 | 0.00 | 0.05 | 0.00 | 82 | 1011.1 |
| 20260508073032 | 1 | 269 | 0.0 | 0.0 | 0.00 | 0.05 | 0.00 | 82 | 1011.3 |
| 20260508071527 | 2 | 269 | 0.0 | 0.0 | 0.00 | 0.05 | 0.00 | 80 | 1011.3 |
| 20260508070026 | 2 | 269 | 0.0 | 0.0 | 0.00 | 0.05 | 0.00 | 80 | 1011.3 |
| 20260508064527 | 2 | 269 | 0.0 | 0.0 | 0.00 | 0.05 | 0.00 | 80 | 1011.3 |
| 20260508063022 | 2 | 269 | 0.0 | 0.0 | 0.00 | 0.05 | 0.00 | 78 | 1011.2 |
| 20260508061519 | 2 | 269 | 0.0 | 0.0 | 0.00 | 0.05 | 0.00 | 77 | 1011.4 |
| 20260508060016 | 3 | 269 | 0.0 | 0.0 | 0.00 | 0.05 | 0.00 | 76 | 1011.6 |
| 20260508054514 | 3 | 269 | 0.0 | 0.0 | 0.00 | 0.05 | 0.00 | 75 | 1011.7 |
| 20260508053010 | 3 | 269 | 0.0 | 0.0 | 0.00 | 0.05 | 0.00 | 71 | 1011.7 |
| 20260508051516 | 4 | 269 | 0.0 | 0.0 | 0.00 | 0.05 | 0.00 | 69 | 1011.7 |
| 20260508050005 | 4 | 269 | 0.0 | 0.0 | 0.00 | 0.05 | 0.00 | 66 | 1012.0 |
| 20260508044505 | 5 | 269 | 0.0 | 0.0 | 0.00 | 0.05 | 0.00 | 69 | 1012.0 |
| 20260508043101 | 5 | 269 | 0.0 | 0.0 | 0.00 | 0.05 | 0.00 | 66 | 1012.0 |
| 20260508043003 | 5 | 269 | 0.0 | 0.0 | 0.00 | 0.05 | 0.00 | 66 | 1011.9 |
| 20260508041603 | 5 | 269 | 0.0 | 0.0 | 0.00 | 0.05 | 0.00 | 63 | 1012.1 |
| 20260508040056 | 5 | 269 | 0.0 | 0.0 | 0.00 | 0.05 | 0.00 | 65 | 1011.9 |
| 20260508034553 | 6 | 269 | 0.0 | 0.0 | 0.00 | 0.08 | 0.05 | 62 | 1012.0 |
| 20260508033059 | 6 | 269 | 0.0 | 0.0 | 0.00 | 0.08 | 0.05 | 61 | 1012.1 |
| 20260508031552 | 6 | 264 | 0.0 | 0.0 | 0.00 | 0.08 | 0.05 | 66 | 1011.9 |
| 20260508030051 | 6 | 320 | 0.0 | 0.0 | 0.00 | 0.08 | 0.05 | 66 | 1012.0 |
| 20260508024557 | 6 | 320 | 0.0 | 0.0 | 0.00 | 0.08 | 0.05 | 67 | 1011.7 |
| 20260508023048 | 6 | 327 | 0.0 | 0.0 | 0.00 | 0.08 | 0.05 | 64 | 1011.9 |
| 20260508021547 | 6 | 327 | 0.0 | 0.0 | 0.00 | 0.08 | 0.05 | 64 | 1011.7 |
| 20260508020046 | 6 | 327 | 0.0 | 0.0 | 0.00 | 0.08 | 0.05 | 60 | 1011.4 |
| 20260508014543 | 7 | 326 | 0.0 | 0.0 | 0.00 | 0.08 | 0.05 | 59 | 1011.3 |
| 20260508013042 | 7 | 327 | 0.0 | 0.0 | 0.00 | 0.08 | 0.05 | 58 | 1011.2 |
| 20260508011542 | 8 | 327 | 0.0 | 0.0 | 0.00 | 0.08 | 0.05 | 56 | 1010.9 |
| 20260508010042 | 8 | 326 | 0.0 | 0.0 | 0.00 | 0.08 | 0.05 | 51 | 1010.8 |
| 20260508004543 | 9 | 326 | 0.0 | 0.0 | 0.00 | 0.08 | 0.05 | 47 | 1010.7 |
| 20260508003042 | 10 | 326 | 0.0 | 0.0 | 0.00 | 0.08 | 0.05 | 52 | 1010.5 |
| 20260508001540 | 10 | 327 | 0.0 | 0.0 | 0.00 | 0.08 | 0.05 | 46 | 1010.3 |
| 20260508000039 | 11 | 326 | 0.0 | 0.0 | 0.00 | 0.08 | 0.05 | 43 | 1010.1 |
| 20260507234548 | 12 | 51 | 0.0 | 0.0 | 0.00 | 0.20 | 0.05 | 41 | 1010.1 |
| 20260507233039 | 12 | 357 | 0.0 | 0.0 | 0.00 | 0.20 | 0.05 | 37 | 1009.8 |
| 20260507231546 | 13 | 240 | 0.0 | 0.0 | 0.00 | 0.20 | 0.05 | 36 | 1009.8 |
| 20260507230038 | 14 | 298 | 0.0 | 3.2 | 0.00 | 0.20 | 0.05 | 34 | 1009.7 |
| 20260507224539 | 15 | 253 | 0.0 | 8.0 | 0.00 | 0.33 | 0.05 | 35 | 1009.6 |
| 20260507223038 | 15 | 139 | 0.0 | 6.4 | 0.00 | 0.33 | 0.05 | 32 | 1009.3 |
| 20260507221537 | 15 | 224 | 0.0 | 8.0 | 0.00 | 0.33 | 0.05 | 33 | 1009.2 |
| 20260507220036 | 16 | 304 | 0.0 | 3.2 | 0.00 | 0.33 | 0.05 | 31 | 1009.1 |
| 20260507214536 | 16 | 312 | 0.0 | 8.0 | 0.00 | 0.43 | 0.05 | 31 | 1009.0 |
| 20260507213044 | 16 | 262 | 0.0 | 0.0 | 0.00 | 0.43 | 0.05 | 31 | 1009.0 |
| 20260507211537 | 16 | 292 | 0.0 | 1.6 | 0.00 | 0.43 | 0.05 | 32 | 1009.1 |
| 20260507210034 | 16 | 295 | 0.0 | 17.7 | 0.00 | 0.61 | 0.05 | 31 | 1008.9 |
| 20260507204533 | 16 | 348 | 0.0 | 16.1 | 0.00 | 0.61 | 0.05 | 33 | 1008.8 |
| 20260507203035 | 17 | 354 | 0.0 | 11.3 | 0.00 | 0.61 | 0.05 | 32 | 1008.8 |
| 20260507201533 | 17 | 253 | 1.6 | 16.1 | 0.00 | 0.61 | 0.05 | 33 | 1008.9 |